Location: UBC Liquid-Mirror Observatory
(49.2876°N, 122.5728°W)
Time: 17:28:02
(UTC-07:00)

KITSAT 1 - Visible Passes

Search period start: 27 August 2016 00:00
Search period end: 06 September 2016 00:00
Orbit: 1309 x 1322 km, 66.1° (Epoch: 27 August)

Date Brightness Start Highest point End Pass type
(mag) Time Alt. Az. Time Alt. Az. Time Alt. Az.
27 Aug 12.2 00:01:23 10° NW 00:07:49 25° N 00:14:15 10° ENE visible
27 Aug 11.2 01:57:51 10° NW 02:05:33 44° NE 02:13:12 10° ESE visible
27 Aug 10.1 03:53:25 10° NW 04:01:26 66° WSW 04:09:23 10° SSE visible
27 Aug 12.2 22:19:39 10° WNW 22:26:17 26° NNW 22:32:54 10° NE visible
28 Aug 12.0 00:17:56 10° NW 00:24:37 27° NNE 00:31:15 10° ENE visible
28 Aug 10.8 02:13:58 10° NW 02:21:57 55° NE 02:29:50 10° ESE visible
28 Aug 10.4 04:09:39 10° NW 04:17:19 48° WSW 04:24:56 10° S visible
28 Aug 11.6 20:37:39 10° WSW 20:45:17 42° NW 20:52:57 10° NE visible
28 Aug 12.2 22:36:39 10° WNW 22:43:04 25° N 22:49:29 10° NE visible
29 Aug 11.8 00:34:20 10° NW 00:41:20 30° NNE 00:48:17 10° E visible
29 Aug 10.4 02:30:05 10° NW 02:38:13 71° NE 02:46:17 10° SE visible
29 Aug 10.7 04:26:03 10° NW 04:33:06 34° WSW 04:40:08 10° S visible
29 Aug 11.8 20:54:31 10° W 21:01:49 35° NNW 21:09:08 10° NE visible
29 Aug 12.2 22:53:33 10° NW 22:59:54 24° N 23:06:14 10° NE visible
30 Aug 11.5 00:50:36 10° NW 00:57:57 35° NNE 01:05:15 10° E visible
30 Aug 10.1 02:46:12 10° NW 02:54:22 89° SW 03:00:44 18° SE visible
30 Aug 11.1 04:42:41 10° NW 04:48:45 24° WSW 04:52:23 18° SW visible
30 Aug 12.0 21:11:30 10° W 21:18:27 30° NNW 21:25:26 10° NE visible
30 Aug 12.1 23:10:17 10° NW 23:16:44 25° N 23:23:08 10° ENE visible
31 Aug 11.2 01:06:48 10° NW 01:14:29 43° NE 01:21:39 12° ESE visible
31 Aug 10.1 03:02:21 10° NW 03:10:23 68° WSW 03:13:27 41° S visible
31 Aug 11.4 04:59:50 10° WNW 05:04:18 16° W 05:05:16 16° WSW visible
31 Aug 12.1 21:28:32 10° WNW 21:35:10 27° NNW 21:41:49 10° NE visible
31 Aug 11.9 23:26:51 10° NW 23:33:30 27° NNE 23:40:08 10° ENE visible
01 Sep 10.8 01:22:55 10° NW 01:30:53 54° NE 01:35:27 26° ESE visible
01 Sep 10.3 03:18:36 10° NW 03:26:18 50° WSW 03:27:18 47° SW visible
01 Sep 12.1 21:45:32 10° WNW 21:51:58 25° N 21:58:23 10° NE visible
01 Sep 11.7 23:43:16 10° NW 23:50:14 30° NNE 23:57:09 10° E visible
02 Sep 10.4 01:39:02 10° NW 01:47:09 69° NE 01:49:42 47° ESE visible
02 Sep 10.8 03:34:58 10° NW 03:41:35 35° WSW 03:41:35 35° WSW visible
02 Sep 12.1 22:02:26 10° NW 22:08:47 24° N 22:15:08 10° NE visible
02 Sep 11.4 23:59:33 10° NW 00:06:52 35° NNE 00:12:21 17° E visible
03 Sep 10.1 01:55:09 10° NW 02:03:19 89° NE 02:04:15 73° SE visible
03 Sep 11.3 03:51:34 10° NW 03:56:09 23° W 03:56:09 23° W visible
03 Sep 11.9 20:20:22 10° W 20:27:21 30° NNW 20:34:21 10° NE visible
03 Sep 12.0 22:19:12 10° NW 22:25:37 25° N 22:32:00 10° ENE visible
04 Sep 11.1 00:15:44 10° NW 00:23:24 42° NE 00:27:05 28° E visible
04 Sep 10.1 02:11:18 10° NW 02:18:59 69° WSW 02:18:59 69° WSW visible
04 Sep 11.8 04:08:41 10° WNW 04:10:53 15° W 04:10:53 15° W visible
04 Sep 12.0 20:37:25 10° WNW 20:44:04 27° NNW 20:50:45 10° NE visible
04 Sep 11.9 22:35:47 10° NW 22:42:24 26° NNE 22:49:00 10° ENE visible
05 Sep 10.7 00:31:52 10° NW 00:39:48 53° NE 00:41:56 43° E visible
05 Sep 10.6 02:27:32 10° NW 02:33:51 46° W 02:33:51 46° W visible
05 Sep 12.1 20:54:25 10° WNW 21:00:52 25° N 21:07:18 10° NE visible
05 Sep 11.6 22:52:12 10° NW 22:59:08 30° NNE 23:04:58 14° ENE visible
